Flight Track Log - Related Links

Times and Time Zones

All times are in EDT time to prevent confusion due to time zone crossing. See the DAL3606 flight status page for this flight to view local times or setup timezone preferences in your user account.

Time Position Orientation Groundspeed Altitude Reporting Facility
EDT Latitude Longitude Course Direction KTS MPH feet Rate Location/Type
Tue 07:42:21 AM 33.6333 -84.3500 48° Northeast 220 253 2,600  Level Atlanta TRACON
Tue 07:43:21 AM 33.6333 -84.2667 90° East 270 311 5,200 2,737 Climbing Atlanta TRACON
Tue 07:44:00 AM 33.8702 -84.1504 73° East  Level Estimated
Tue 07:44:15 AM 33.6333 -84.1667 90° East 282 325 7,800  Level Atlanta TRACON
Tue 07:44:55 AM 33.6336 -84.1236 90° East 301 346 9,000 2,280 Climbing Atlanta Center
Tue 07:45:00 AM 33.9479 -84.0575 54° Northeast  Level Estimated
Tue 07:45:55 AM 33.6772 -84.0439 57° Northeast 295 339 11,600  Level Atlanta Center
Tue 07:46:00 AM 33.9112 -83.9333 110° East  Level FlightAware Approximate
Tue 07:46:55 AM 33.7419 -83.9589 48° Northeast 307 353 12,600  Level Atlanta Center
Tue 07:47:00 AM 33.9897 -83.8415 48° Northeast  Level Estimated
Tue 07:47:55 AM 33.8150 -83.8689 46° Northeast 347 399 14,200  Level Atlanta Center
Tue 07:48:55 AM 33.8900 -83.7711 47° Northeast 376 433 16,100 1,850 Climbing Atlanta Center
Tue 07:49:55 AM 33.9606 -83.6681 50° Northeast 399 459 17,900 1,600 Climbing Atlanta Center
Tue 07:50:55 AM 34.0311 -83.5550 53° Northeast 409 471 19,300 1,400 Climbing Atlanta Center
Tue 07:51:55 AM 34.1039 -83.4417 52° Northeast 418 481 20,700 1,400 Climbing Atlanta Center
Tue 07:52:55 AM 34.1783 -83.3256 52° Northeast 423 487 22,100 1,400 Climbing Atlanta Center
Tue 07:53:55 AM 34.2567 -83.1919 55° Northeast 434 499 23,500 1,450 Climbing Atlanta Center
Tue 07:54:55 AM 34.3311 -83.0753 52° Northeast 439 505 25,000 1,400 Climbing Atlanta Center
Tue 07:55:55 AM 34.4053 -82.9561 53° Northeast 439 505 26,300 1,250 Climbing Atlanta Center
Tue 07:56:55 AM 34.4833 -82.8342 52° Northeast 444 511 27,500 1,250 Climbing Atlanta Center
Tue 07:57:55 AM 34.5572 -82.7119 54° Northeast 439 505 28,800 1,300 Climbing Atlanta Center
Tue 07:58:55 AM 34.6289 -82.5897 55° Northeast 444 511 30,100 1,050 Climbing Atlanta Center
Tue 07:59:55 AM 34.7047 -82.4697 52° Northeast 444 511 30,900 800 Climbing Atlanta Center
Tue 08:00:55 AM 34.7803 -82.3494 53° Northeast 444 511 31,700 950 Climbing Atlanta Center
Tue 08:01:55 AM 34.8536 -82.2239 55° Northeast 449 517 32,800 1,000 Climbing Atlanta Center
Tue 08:02:55 AM 34.9331 -82.1006 52° Northeast 449 517 33,700 800 Climbing Atlanta Center
Tue 08:03:55 AM 35.0083 -81.9772 53° Northeast 454 522 34,400 650 Climbing Atlanta Center
Tue 08:04:55 AM 35.0769 -81.8461 57° Northeast 454 522 35,000 300 Climbing Atlanta Center
Tue 08:05:55 AM 35.1497 -81.7144 56° Northeast 461 531 35,000  Level Atlanta Center
Tue 08:06:55 AM 35.2119 -81.5958 57° Northeast 466 536 35,000  Level Atlanta Center
Tue 08:07:55 AM 35.2822 -81.4614 57° Northeast 459 528 35,000  Level Atlanta Center
Tue 08:08:55 AM 35.3503 -81.3269 58° Northeast 459 528 35,000  Level Atlanta Center
Tue 08:09:55 AM 35.4183 -81.1947 58° Northeast 464 534 35,000 -250 Level Atlanta Center
Tue 08:10:55 AM 35.4881 -81.0597 58° Northeast 464 534 34,500 -500 Descending Atlanta Center
Tue 08:11:55 AM 35.5678 -80.9086 57° Northeast 464 534 34,000 -500 Descending Atlanta Center
Tue 08:12:55 AM 35.6314 -80.7886 57° Northeast 471 542 33,500 -450 Descending Atlanta Center
Tue 08:13:55 AM 35.7028 -80.6503 58° Northeast 477 549 33,100 -500 Descending Atlanta Center
Tue 08:14:55 AM 35.7739 -80.5092 58° Northeast 477 549 32,500 -800 Descending Atlanta Center
Tue 08:15:55 AM 35.8450 -80.3703 58° Northeast 477 549 31,500 -750 Descending Atlanta Center
Tue 08:16:55 AM 35.9156 -80.2261 59° Northeast 477 549 31,000 -161 Descending Atlanta Center
Tue 08:19:01 AM 36.0775 -79.9275 56° Northeast 474 545 31,000  Level Washington Center
Tue 08:20:03 AM 36.1531 -79.7953 55° Northeast 474 545 31,000 -50 Level Washington Center
Tue 08:21:00 AM 36.2289 -79.6553 56° Northeast 484 557 30,900 -303 Descending Washington Center
Tue 08:22:02 AM 36.2978 -79.5350 55° Northeast 484 557 30,400 -541 Descending Washington Center
Tue 08:23:02 AM 36.3839 -79.3847 55° Northeast 478 550 29,800 -500 Descending Washington Center
Tue 08:24:02 AM 36.4547 -79.2511 57° Northeast 473 544 29,400 -446 Descending Washington Center
Tue 08:25:03 AM 36.5297 -79.1228 54° Northeast 473 544 28,900 -555 Descending Washington Center
Tue 08:26:01 AM 36.6067 -78.9867 55° Northeast 473 544 28,300 -1,373 Descending Washington Center
Tue 08:27:01 AM 36.6728 -78.8575 57° Northeast 473 544 26,200 -1,636 Descending Washington Center
Tue 08:28:02 AM 36.7450 -78.7308 55° Northeast 473 544 25,000 -595 Descending Washington Center
Tue 08:29:02 AM 36.8194 -78.5911 56° Northeast 478 550 25,000  Level Washington Center
Tue 08:30:02 AM 36.8917 -78.4564 56° Northeast 478 550 25,000 -99 Level Washington Center
Tue 08:31:03 AM 36.9767 -78.3061 55° Northeast 479 551 24,800 -353 Descending Washington Center
Tue 08:32:01 AM 37.0606 -78.1842 49° Northeast 479 551 24,300 -504 Descending Washington Center
Tue 08:33:02 AM 37.1708 -78.1072 29° Northeast 444 511 23,800 -496 Descending Washington Center
Tue 08:34:02 AM 37.2789 -78.0219 32° Northeast 449 517 23,300 -500 Descending Washington Center
Tue 08:35:02 AM 37.3869 -77.9392 31° Northeast 454 522 22,800 -545 Descending Washington Center
Tue 08:36:03 AM 37.4928 -77.8558 32° Northeast 454 522 22,200 -403 Descending Washington Center
Tue 08:37:01 AM 37.6047 -77.7858 26° Northeast 449 517 22,000 -1,068 Descending Washington Center
Tue 08:38:01 AM 37.7144 -77.7181 26° Northeast 443 510 20,100 -2,231 Descending Washington Center
Tue 08:39:02 AM 37.8219 -77.6556 25° Northeast 429 494 17,500 -2,557 Descending Washington Center
Tue 08:40:03 AM 37.9272 -77.5953 24° Northeast 418 481 14,900 -2,471 Descending Washington Center
Tue 08:41:01 AM 38.0239 -77.5372 25° Northeast 403 464 12,600 -2,136 Descending Washington Center
Tue 08:42:01 AM 38.1125 -77.4892 23° Northeast 386 444 10,700 -1,300 Descending Washington Center
Tue 08:43:01 AM 38.1967 -77.4411 24° Northeast 359 413 10,000 -347 Descending Washington Center
Tue 08:44:02 AM 38.2700 -77.4061 21° North 317 365 10,000 -246 Level Washington Center
Tue 08:45:03 AM 38.3492 -77.4158 354° North 274 315 9,500 -1,091 Descending Washington Center
Tue 08:46:03 AM 38.4219 -77.4256 354° North 269 310 7,800 -1,322 Descending Washington Center
Tue 08:47:01 AM 38.4947 -77.4328 356° North 269 310 6,900 -1,220 Descending Washington Center
Tue 08:48:01 AM 38.5697 -77.4450 353° North 269 310 5,400 -1,140 Descending Washington Center
Tue 08:49:02 AM 38.6425 -77.4522 356° North 269 310 4,600 -975 Descending Washington Center
Tue 08:49:21 AM 38.6833 -77.4500 North 266 306 4,100 -456 Descending Potomac TRACON
Tue 08:50:21 AM 38.7500 -77.4667 349° North 261 300 4,000 -100 Descending Potomac TRACON

Login

Don't have an account? Register now (free) for customized features, flight alerts, and more!